Left ArrowRight Arrow

45.66244, -110.56104

Hourly Observations for June 16, 2024

Temp ( °F °C ) Dew Point ( °F °C ) Humidity (%) Winds ( mph kmh ) Pressure ( in mb ) Visibility ( mi km ) Precip ( " mm )
12:53 am 00:53 Mostly Cloudy 48 8.9 29 -1.7 47 47 W 13 20 29.85 1011 10 16 0.00 0.00
1:53 am 01:53 Cloudy 47 8.3 27 -2.8 45 45 W 16 26 29.85 1011 10 16 0.00 0.00
2:53 am 02:53 Partly Cloudy 45 7.2 28 -2.2 51 51 W 16 26 29.84 1010 10 16 0.00 0.00
3:53 am 03:53 Cloudy 46 7.8 24 -4.4 42 42 W 20 31 29.85 1011 10 16 0.00 0.00
4:53 am 04:53 Mostly Clear 44 6.7 24 -4.4 45 45 W 18 30 29.90 1013 10 16 0.00 0.00
5:53 am 05:53 Sunny 44 6.7 24 -4.4 45 45 WSW 15 24 29.91 1013 10 16 0.00 0.00
6:53 am 06:53 Sunny 46 7.8 25 -3.9 43 43 W 20 31 29.93 1013 10 16 0.00 0.00
7:53 am 07:53 Mostly Sunny 48 8.9 25 -3.9 40 40 W 20 31 29.91 1013 10 16 0.00 0.00
8:53 am 08:53 Sunny 52 11.1 26 -3.3 36 36 W 23 37 29.90 1012 10 16 0.00 0.00
9:53 am 09:53 Sunny 55 12.8 25 -3.9 31 31 W 21 33 29.88 1012 10 16 0.00 0.00
10:53 am 10:53 Sunny 58 14.4 27 -2.8 30 30 W 18 30 29.85 1011 10 16 0.00 0.00
11:53 am 11:53 Sunny 60 15.6 26 -3.3 27 27 WNW 20 31 29.83 1010 10 16 0.00 0.00
12:53 pm 12:53 Sunny 64 17.8 25 -3.9 22 22 WNW 17 28 29.80 1009 10 16 0.00 0.00
1:53 pm 13:53 Sunny 63 17.2 22 -5.6 21 21 WSW 18 30 29.78 1009 10 16 0.00 0.00
2:53 pm 14:53 Sunny 63 17.2 22 -5.6 21 21 WNW 12 19 29.78 1008 10 16 0.00 0.00
3:53 pm 15:53 Sunny 66 18.9 27 -2.8 23 23 N 15 24 29.74 1007 10 16 0.00 0.00
4:53 pm 16:53 Sunny 66 18.9 26 -3.3 22 22 NW 15 24 29.72 1007 10 16 0.00 0.00
5:53 pm 17:53 Sunny 66 18.9 24 -4.4 20 20 N 9 15 29.71 1006 10 16 0.00 0.00
6:53 pm 18:53 Sunny 64 17.8 24 -4.4 22 22 NNW 7 11 29.72 1006 10 16 0.00 0.00
7:53 pm 19:53 Cloudy 62 16.7 27 -2.8 26 26 undefined N/A 29.73 1007 10 16 0.00 0.00
8:53 pm 20:53 Partly Cloudy 56 13.3 24 -4.4 29 29 E 18 30 29.75 1008 10 16 0.00 0.00
9:53 pm 21:53 Clear 53 11.7 24 -4.4 32 32 ESE 13 20 29.77 1008 10 16 0.00 0.00
10:53 pm 22:53 Clear 52 11.1 22 -5.6 30 30 ESE 15 24 29.75 1007 10 16 0.00 0.00
11:53 pm 23:53 Mostly Cloudy 53 11.7 22 -5.6 29 29 ESE 21 33 29.71 1006 10 16 0.00 0.00

Powered by Vaisala Xweather